Mineral Wells, TX

12:16 AM CST on February 22, 2017 (GMT -0600)
Mineral Wells

Weather History for KMWL - November, 2013

Change the Weather History Date:

Monday, November 25, 2013

  Actual Average Record
Temperature  
Mean Temperature 34 °F -  
Max Temperature 37 °F 62 °F 79 °F (2012)
Min Temperature 30 °F 40 °F 28 °F (1996)
Degree Days  
Heating Degree Days 32    
Moisture  
Dew Point 31 °F    
Average Humidity 94    
Maximum Humidity 100    
Minimum Humidity 82    
Precipitation  
Precipitation 0.09 in - - ()
Sea Level Pressure  
Sea Level Pressure 30.23 in    
Wind  
Wind Speed 4 mph (East)    
Max Wind Speed 12 mph    
Max Gust Speed -    
Visibility 8 miles    
Events Rain , Snow    
Averages and records for this station are not official NWS values.
T = Trace of Precipitation, MM = Missing Value Source: NWS Daily Summary

Daily Weather History Graph

Daily Weather History Graph

Search for Another Location

Airport or City:

Trip Planner

Search our weather history database for the weather conditions in past years. The results will help you decide how hot, cold, wet, or windy it might be!

Date:

Astronomy

Nov. 25, 2013 Rise Set
Actual Time 7:11 AM CST 5:26 PM CST
Civil Twilight 6:45 AM CST 5:53 PM CST
Nautical Twilight 6:14 AM CST 6:23 PM CST
Astronomical Twilight 5:45 AM CST 6:53 PM CST
Moon No Moon Rise 12:41 PM CST (11/25)
Length of Visible Light 11h 08m
Length of Day
10h 15m
Waning Gibbous, 51% of the Moon is Illuminated
Nov 25
Waning Gibbous
Nov 25
Last Quarter
Dec 2
New
Dec 9
First Quarter
Dec 17
Full

Hourly Weather History & Observations

Time (CST) Temp. Windchill Dew Point Humidity Pressure Visibility Wind Dir Wind Speed Gust Speed Precip Events Conditions
12:01 AM 30.9 °F - 28.9 °F 92% 30.32 in 6.0 mi Calm Calm - 0.01 in   Overcast
12:23 AM 30.9 °F - 28.9 °F 92% 30.32 in 7.0 mi Calm Calm - 0.02 in Rain Light Freezing Rain
12:40 AM 30.9 °F 27.5 °F 30.0 °F 96% 30.31 in 8.0 mi SE 3.5 mph - 0.03 in Rain Light Freezing Rain
12:53 AM 30.9 °F 25.2 °F 30.0 °F 96% 30.32 in 6.0 mi ESE 5.8 mph - 0.05 in Rain Light Freezing Rain
1:00 AM 30.9 °F 27.5 °F 30.0 °F 96% 30.29 in 7.0 mi ESE 3.5 mph - 0.00 in Rain Light Freezing Rain
1:04 AM 30.9 °F 26.2 °F 30.0 °F 96% 30.28 in 6.0 mi East 4.6 mph - 0.01 in Rain Light Freezing Rain
1:15 AM 30.9 °F 26.2 °F 30.0 °F 96% 30.28 in 5.0 mi ESE 4.6 mph - 0.03 in Rain Light Freezing Rain
1:24 AM 30.9 °F - 30.0 °F 96% 30.30 in 7.0 mi Calm Calm - 0.03 in Rain Light Freezing Rain
1:39 AM 30.9 °F 27.5 °F 28.9 °F 92% 30.28 in 9.0 mi South 3.5 mph - 0.03 in   Overcast
1:53 AM 30.9 °F 25.2 °F 28.9 °F 92% 30.31 in 10.0 mi SSW 5.8 mph - 0.03 in   Overcast
2:05 AM 30.9 °F 26.2 °F 28.9 °F 92% 30.28 in 10.0 mi SSE 4.6 mph - N/A   Overcast
2:14 AM 30.9 °F 27.5 °F 28.9 °F 92% 30.28 in 10.0 mi South 3.5 mph - N/A   Overcast
2:30 AM 30.9 °F 25.2 °F 30.0 °F 96% 30.28 in 6.0 mi South 5.8 mph - 0.00 in   Overcast
2:37 AM 30.9 °F 26.2 °F 28.9 °F 92% 30.27 in 3.0 mi SSE 4.6 mph - 0.00 in Rain Light Freezing Rain
2:46 AM 30.9 °F 25.2 °F 30.0 °F 96% 30.26 in 3.0 mi ESE 5.8 mph - 0.00 in Rain Light Freezing Rain
2:49 AM 30.2 °F 26.7 °F 28.4 °F 93% 30.26 in 3.0 mi SE 3.5 mph - 0.01 in Snow Light Snow
2:53 AM 30.0 °F 24.1 °F 28.9 °F 96% 30.28 in 4.0 mi ESE 5.8 mph - 0.01 in Snow Light Snow
3:27 AM 30.9 °F 25.2 °F 30.0 °F 96% 30.26 in 5.0 mi SE 5.8 mph - 0.00 in   Overcast
3:41 AM 30.0 °F 25.2 °F 30.0 °F 100% 30.25 in 6.0 mi ESE 4.6 mph - 0.00 in   Overcast
3:53 AM 30.0 °F 25.2 °F 30.0 °F 100% 30.27 in 9.0 mi SE 4.6 mph - 0.00 in   Overcast
4:28 AM 30.9 °F 26.2 °F 30.0 °F 96% 30.24 in 10.0 mi ESE 4.6 mph - N/A   Overcast
4:53 AM 30.9 °F 25.2 °F 30.0 °F 96% 30.27 in 10.0 mi SSE 5.8 mph - N/A   Overcast
5:39 AM 30.9 °F 27.5 °F 30.0 °F 96% 30.22 in 9.0 mi ESE 3.5 mph - N/A   Overcast
5:53 AM 30.9 °F 26.2 °F 30.0 °F 96% 30.25 in 7.0 mi SSE 4.6 mph - N/A   Overcast
6:12 AM 30.9 °F 27.5 °F 30.9 °F 100% 30.23 in 4.0 mi SE 3.5 mph - 0.00 in   Overcast
6:27 AM 30.9 °F - 30.9 °F 100% 30.23 in 3.0 mi Calm Calm - 0.00 in   Overcast
6:35 AM 30.9 °F - 30.9 °F 100% 30.22 in 4.0 mi Calm Calm - 0.00 in   Overcast
6:53 AM 30.9 °F 27.5 °F 30.0 °F 96% 30.24 in 5.0 mi ESE 3.5 mph - 0.00 in   Overcast
7:27 AM 30.9 °F 27.5 °F 30.9 °F 100% 30.22 in 6.0 mi East 3.5 mph - N/A   Overcast
7:36 AM 30.9 °F 24.3 °F 30.0 °F 96% 30.21 in 6.0 mi ESE 6.9 mph - N/A   Overcast
7:53 AM 30.9 °F 26.2 °F 30.9 °F 100% 30.24 in 6.0 mi East 4.6 mph - N/A   Overcast
8:02 AM 30.9 °F 26.2 °F 30.9 °F 100% 30.22 in 10.0 mi ESE 4.6 mph - N/A   Overcast
8:25 AM 32.0 °F 27.5 °F 30.9 °F 96% 30.22 in 10.0 mi ESE 4.6 mph - N/A   Overcast
8:36 AM 32.0 °F 27.5 °F 30.9 °F 96% 30.22 in 10.0 mi ESE 4.6 mph - N/A   Overcast
8:53 AM 32.0 °F 28.7 °F 30.9 °F 96% 30.25 in 10.0 mi ESE 3.5 mph - N/A   Overcast
9:04 AM 33.1 °F - 32.0 °F 96% 30.23 in 10.0 mi Calm Calm - N/A   Overcast
9:32 AM 33.1 °F - 30.9 °F 92% 30.24 in 10.0 mi Calm Calm - N/A   Overcast
9:53 AM 33.1 °F 30.0 °F 30.9 °F 92% 30.25 in 10.0 mi SSE 3.5 mph - N/A   Overcast
10:08 AM 33.1 °F 30.0 °F 32.0 °F 96% 30.23 in 9.0 mi SSE 3.5 mph - N/A   Overcast
10:24 AM 33.1 °F - 32.0 °F 96% 30.22 in 10.0 mi Calm Calm - N/A   Overcast
10:53 AM 33.1 °F 30.0 °F 32.0 °F 96% 30.23 in 10.0 mi ESE 3.5 mph - N/A   Overcast
11:42 AM 35.1 °F 31.0 °F 32.0 °F 89% 30.19 in 10.0 mi Variable 4.6 mph - N/A   Overcast
11:53 AM 35.1 °F - 32.0 °F 89% 30.21 in 10.0 mi Calm Calm - N/A   Overcast
12:53 PM 35.1 °F - 32.0 °F 89% 30.18 in 10.0 mi Calm Calm - N/A   Overcast
1:53 PM 37.0 °F 34.5 °F 33.1 °F 86% 30.16 in 10.0 mi North 3.5 mph - N/A   Overcast
2:53 PM 37.0 °F 32.4 °F 32.0 °F 82% 30.15 in 10.0 mi NNE 5.8 mph - N/A   Overcast
3:53 PM 37.0 °F 29.8 °F 33.1 °F 86% 30.16 in 10.0 mi NNE 10.4 mph - N/A   Overcast
4:53 PM 36.0 °F 29.6 °F 33.1 °F 89% 30.18 in 10.0 mi North 8.1 mph - N/A   Overcast
5:12 PM 35.1 °F 29.3 °F 34.0 °F 96% 30.17 in 4.0 mi North 6.9 mph - N/A   Overcast
5:53 PM 35.1 °F 27.9 °F 34.0 °F 96% 30.18 in 10.0 mi North 9.2 mph - N/A   Overcast
6:11 PM 35.1 °F 27.4 °F 34.0 °F 96% 30.16 in 10.0 mi North 10.4 mph - N/A   Overcast
6:53 PM 36.0 °F 29.6 °F 33.1 °F 89% 30.19 in 10.0 mi North 8.1 mph - N/A   Overcast
7:15 PM 36.0 °F 29.6 °F 33.1 °F 89% 30.18 in 10.0 mi North 8.1 mph - N/A   Overcast
7:48 PM 35.6 °F 27.5 °F 33.8 °F 93% 30.19 in 10.0 mi North 11.5 mph - N/A   Overcast
7:53 PM 36.0 °F 28.5 °F 33.1 °F 89% 30.20 in 10.0 mi North 10.4 mph - N/A   Overcast
8:53 PM 35.1 °F 27.4 °F 33.1 °F 92% 30.22 in 10.0 mi North 10.4 mph - 0.00 in   Overcast
9:24 PM 35.1 °F 27.9 °F 33.1 °F 92% 30.20 in 10.0 mi North 9.2 mph - 0.00 in Rain Light Rain
9:53 PM 35.1 °F 27.9 °F 33.1 °F 92% 30.22 in 10.0 mi North 9.2 mph - 0.00 in   Overcast
10:02 PM 35.1 °F 27.9 °F 33.1 °F 92% 30.21 in 10.0 mi North 9.2 mph - N/A   Overcast
10:26 PM 35.1 °F 27.9 °F 33.1 °F 92% 30.20 in 10.0 mi NNW 9.2 mph - N/A   Overcast
10:43 PM 34.0 °F 26.6 °F 33.1 °F 96% 30.19 in 10.0 mi North 9.2 mph - N/A   Overcast
10:53 PM 34.0 °F 26.6 °F 33.1 °F 96% 30.20 in 10.0 mi North 9.2 mph - N/A   Overcast
11:53 PM 35.1 °F 26.9 °F 33.1 °F 92% 30.19 in 10.0 mi NNW 11.5 mph - N/A   Overcast